SCF7704 ZPPP-ZPLJ

Flight info

Callsign SCF7704
Flight time 0h 45m
Altitude 30000
Route GULOT1Y GULOT W146 BUBSU W162 CEH
Aircraft A320/M-SDE3FGHIRWY/LB1

Departure

Time 2026-05-09 10:19
Airport Kunming Changshui International Airport (ZPPP)

Arrival

Time 2026-05-09 11:05
Airport Lijiang Sanyi International Airport (ZPLJ)
Time Latitude Longitude Altitude Speed Heading
2026-05-09 09:52 25.11318 102.94631 6931 ft 0 kts 128°
2026-05-09 09:58 25.11318 102.94630 6921 ft 0 kts 128°
2026-05-09 10:07 25.11319 102.94629 6932 ft 2 kts 128°
2026-05-09 10:07 25.11329 102.94615 6926 ft 2 kts 128°
2026-05-09 10:07 25.11340 102.94600 6933 ft 2 kts 128°
2026-05-09 10:07 25.11350 102.94585 6925 ft 2 kts 142°
2026-05-09 10:08 25.11365 102.94579 6934 ft 2 kts 212°
2026-05-09 10:08 25.11368 102.94581 6921 ft 0 kts 220°
2026-05-09 10:12 25.11351 102.94582 6925 ft 4 kts 152°
2026-05-09 10:13 25.11368 102.94609 6922 ft 7 kts 22°
2026-05-09 10:13 25.11416 102.94629 6934 ft 6 kts 21°
2026-05-09 10:13 25.11443 102.94656 6934 ft 6 kts 65°
2026-05-09 10:13 25.11428 102.94713 6925 ft 8 kts 126°
2026-05-09 10:14 25.11397 102.94756 6930 ft 7 kts 128°
2026-05-09 10:14 25.11405 102.94825 6928 ft 11 kts 41°
2026-05-09 10:14 25.11456 102.94869 6921 ft 8 kts 37°
2026-05-09 10:14 25.11494 102.94902 6921 ft 8 kts 38°
2026-05-09 10:15 25.11545 102.94947 6931 ft 11 kts 39°
2026-05-09 10:15 25.11610 102.95003 6927 ft 11 kts 38°
2026-05-09 10:15 25.11661 102.95047 6923 ft 8 kts 38°
2026-05-09 10:15 25.11715 102.95095 6924 ft 12 kts 39°
2026-05-09 10:16 25.11789 102.95158 6921 ft 13 kts 38°
2026-05-09 10:16 25.11855 102.95215 6928 ft 10 kts 38°
2026-05-09 10:16 25.11900 102.95254 6928 ft 8 kts 38°
2026-05-09 10:16 25.11931 102.95312 6924 ft 9 kts 94°
2026-05-09 10:17 25.11908 102.95360 6924 ft 5 kts 128°
2026-05-09 10:17 25.11880 102.95398 6927 ft 11 kts 127°
2026-05-09 10:17 25.11839 102.95458 6930 ft 8 kts 128°
2026-05-09 10:17 25.11808 102.95501 6928 ft 7 kts 129°
2026-05-09 10:18 25.11776 102.95509 6926 ft 5 kts 186°
2026-05-09 10:18 25.11736 102.95479 6927 ft 7 kts 218°
2026-05-09 10:18 25.11730 102.95473 6921 ft 1 kts 218°
2026-05-09 10:18 25.11651 102.95404 6921 ft 43 kts 218°
2026-05-09 10:19 25.11237 102.95042 6925 ft 107 kts 218°
2026-05-09 10:19 25.10514 102.94411 6930 ft 157 kts 218°
2026-05-09 10:19 25.09556 102.93564 7027 ft 189 kts 219°
2026-05-09 10:19 25.08515 102.92658 7752 ft 192 kts 218°
2026-05-09 10:20 25.07455 102.91739 8453 ft 196 kts 219°
2026-05-09 10:20 25.06353 102.90784 8777 ft 209 kts 218°
2026-05-09 10:20 25.05157 102.89748 8977 ft 228 kts 219°
2026-05-09 10:20 25.03850 102.88611 9174 ft 251 kts 219°
2026-05-09 10:21 25.02451 102.87394 9783 ft 258 kts 219°
2026-05-09 10:21 25.01032 102.86159 10481 ft 261 kts 220°
2026-05-09 10:21 24.99601 102.84914 11163 ft 263 kts 220°
2026-05-09 10:21 24.98150 102.83656 11808 ft 266 kts 220°
2026-05-09 10:22 24.96689 102.82392 12493 ft 268 kts 220°
2026-05-09 10:22 24.95211 102.81115 13141 ft 271 kts 220°
2026-05-09 10:22 24.93806 102.79730 13795 ft 272 kts 236°
2026-05-09 10:22 24.93164 102.77807 14380 ft 272 kts 268°
2026-05-09 10:23 24.93590 102.75777 14950 ft 277 kts 295°
2026-05-09 10:23 24.94632 102.73977 15543 ft 281 kts 304°
2026-05-09 10:23 24.95854 102.72280 16136 ft 284 kts 306°
2026-05-09 10:23 24.97090 102.70578 16734 ft 285 kts 305°
2026-05-09 10:24 24.98284 102.68827 17327 ft 287 kts 303°
2026-05-09 10:24 24.99430 102.67018 17928 ft 288 kts 301°
2026-05-09 10:24 25.00534 102.65168 18521 ft 290 kts 300°
2026-05-09 10:24 25.01616 102.63285 19021 ft 292 kts 299°
2026-05-09 10:25 25.02701 102.61369 19362 ft 300 kts 299°
2026-05-09 10:25 25.03848 102.59371 19484 ft 316 kts 300°
2026-05-09 10:25 25.05064 102.57279 19593 ft 332 kts 300°
2026-05-09 10:25 25.06224 102.55067 19707 ft 344 kts 291°
2026-05-09 10:26 25.06848 102.52486 19824 ft 356 kts 275°
2026-05-09 10:26 25.06730 102.49722 19940 ft 368 kts 258°
2026-05-09 10:26 25.05820 102.47038 20037 ft 382 kts 244°
2026-05-09 10:26 25.04562 102.44407 20146 ft 393 kts 243°
2026-05-09 10:27 25.03271 102.41706 20292 ft 402 kts 244°
2026-05-09 10:27 25.01962 102.38964 20617 ft 406 kts 244°
2026-05-09 10:27 25.00645 102.36197 20992 ft 408 kts 244°
2026-05-09 10:27 24.99325 102.33419 21357 ft 410 kts 243°
2026-05-09 10:28 24.97996 102.30630 21723 ft 412 kts 243°
2026-05-09 10:28 24.96659 102.27825 22100 ft 414 kts 243°
2026-05-09 10:28 24.95317 102.25011 22466 ft 416 kts 243°
2026-05-09 10:28 24.93970 102.22188 22812 ft 417 kts 243°
2026-05-09 10:29 24.92615 102.19349 23148 ft 419 kts 243°
2026-05-09 10:29 24.91255 102.16505 23455 ft 421 kts 243°
2026-05-09 10:29 24.89886 102.13643 23758 ft 423 kts 243°
2026-05-09 10:29 24.88514 102.10776 24032 ft 424 kts 243°
2026-05-09 10:30 24.87132 102.07894 24296 ft 426 kts 243°
2026-05-09 10:30 24.85750 102.05009 24573 ft 426 kts 243°
2026-05-09 10:30 24.84365 102.02119 24834 ft 427 kts 242°
2026-05-09 10:30 24.82978 101.99225 25162 ft 426 kts 242°
2026-05-09 10:31 24.81593 101.96337 25454 ft 428 kts 242°
2026-05-09 10:31 24.80200 101.93437 25766 ft 429 kts 242°
2026-05-09 10:31 24.78803 101.90533 26014 ft 430 kts 242°
2026-05-09 10:31 24.77403 101.87619 26246 ft 431 kts 242°
2026-05-09 10:32 24.75999 101.84704 26492 ft 432 kts 242°
2026-05-09 10:32 24.74592 101.81786 26744 ft 432 kts 242°
2026-05-09 10:32 24.73180 101.78863 26959 ft 434 kts 241°
2026-05-09 10:32 24.71764 101.75930 27172 ft 435 kts 242°
2026-05-09 10:33 24.70343 101.72984 27389 ft 436 kts 242°
2026-05-09 10:33 24.68922 101.70040 27648 ft 436 kts 241°
2026-05-09 10:33 24.67500 101.67101 27996 ft 434 kts 241°
2026-05-09 10:33 24.66563 101.65167 28232 ft 433 kts 241°
2026-05-09 10:34 24.64724 101.61244 28688 ft 431 kts 246°
2026-05-09 10:34 24.63545 101.55923 29208 ft 436 kts 263°
2026-05-09 10:34 24.63643 101.52585 29553 ft 441 kts 274°
2026-05-09 10:35 24.64346 101.49290 29911 ft 446 kts 282°
2026-05-09 10:35 24.65274 101.46032 30099 ft 447 kts 282°
2026-05-09 10:35 24.67129 101.39505 30105 ft 449 kts 281°
2026-05-09 10:36 24.68979 101.32942 30109 ft 449 kts 282°
2026-05-09 10:36 24.70818 101.26380 30094 ft 449 kts 282°
2026-05-09 10:37 24.72655 101.19825 30092 ft 448 kts 282°
2026-05-09 10:37 24.74499 101.13267 30092 ft 449 kts 282°
2026-05-09 10:38 24.76342 101.06707 30088 ft 449 kts 282°
2026-05-09 10:38 24.78181 101.00147 30070 ft 448 kts 282°
2026-05-09 10:39 24.80007 100.93600 30070 ft 448 kts 282°
2026-05-09 10:39 24.81837 100.87038 30062 ft 448 kts 282°
2026-05-09 10:40 24.83659 100.80477 30053 ft 448 kts 282°
2026-05-09 10:40 24.85470 100.73913 30049 ft 448 kts 281°
2026-05-09 10:41 24.87284 100.67356 30016 ft 447 kts 282°
2026-05-09 10:41 24.89089 100.60853 30016 ft 447 kts 282°
2026-05-09 10:42 24.90899 100.54295 29992 ft 447 kts 282°
2026-05-09 10:42 24.92705 100.47733 30008 ft 447 kts 281°
2026-05-09 10:43 24.94499 100.41187 29987 ft 446 kts 281°
2026-05-09 10:43 24.96287 100.34647 29983 ft 445 kts 281°
2026-05-09 10:44 24.97363 100.31435 29984 ft 453 kts 292°
2026-05-09 10:44 24.99211 100.28572 29988 ft 467 kts 308°
2026-05-09 10:44 25.01809 100.26355 29959 ft 481 kts 325°
2026-05-09 10:44 25.04977 100.25043 29944 ft 496 kts 343°
2026-05-09 10:45 25.08457 100.24840 29942 ft 509 kts
2026-05-09 10:46 25.22584 100.26747 29935 ft 513 kts
2026-05-09 10:46 25.29685 100.27701 29961 ft 514 kts
2026-05-09 10:47 25.36784 100.28641 29990 ft 514 kts
2026-05-09 10:47 25.40336 100.29112 29786 ft 513 kts
2026-05-09 10:47 25.43876 100.29581 29515 ft 512 kts
2026-05-09 10:47 25.47369 100.30046 29258 ft 513 kts
2026-05-09 10:48 25.50909 100.30523 28998 ft 513 kts
2026-05-09 10:48 25.54452 100.31002 28726 ft 513 kts
2026-05-09 10:48 25.57993 100.31482 28471 ft 512 kts
2026-05-09 10:48 25.61530 100.31958 28242 ft 512 kts
2026-05-09 10:49 25.65045 100.32672 27974 ft 518 kts 10°
2026-05-09 10:49 25.68479 100.33926 27730 ft 521 kts 15°
2026-05-09 10:49 25.71893 100.35257 27482 ft 520 kts 15°
2026-05-09 10:49 25.75308 100.36592 27233 ft 520 kts 15°
2026-05-09 10:50 25.78724 100.37926 26964 ft 521 kts 15°
2026-05-09 10:50 25.82146 100.39256 26728 ft 521 kts 15°
2026-05-09 10:50 25.85571 100.40586 26493 ft 522 kts 15°
2026-05-09 10:50 25.89001 100.41919 26250 ft 522 kts 14°
2026-05-09 10:51 25.92426 100.43249 26025 ft 522 kts 14°
2026-05-09 10:51 25.95853 100.44580 25792 ft 522 kts 15°
2026-05-09 10:51 25.99280 100.45916 25561 ft 522 kts 15°
2026-05-09 10:51 26.02702 100.47256 25302 ft 521 kts 15°
2026-05-09 10:52 26.06122 100.48598 25078 ft 521 kts 15°
2026-05-09 10:52 26.09537 100.49922 24501 ft 519 kts 13°
2026-05-09 10:52 26.12981 100.50622 23667 ft 488 kts 354°
2026-05-09 10:52 26.16205 100.50088 22764 ft 455 kts 334°
2026-05-09 10:53 26.18871 100.48453 21836 ft 424 kts 314°
2026-05-09 10:53 26.20663 100.46006 20933 ft 398 kts 292°
2026-05-09 10:53 26.21553 100.43166 20054 ft 383 kts 283°
2026-05-09 10:53 26.22274 100.40347 19189 ft 374 kts 284°
2026-05-09 10:54 26.22981 100.37584 18356 ft 367 kts 284°
2026-05-09 10:54 26.23518 100.34841 17437 ft 360 kts 271°
2026-05-09 10:54 26.23139 100.32127 16509 ft 354 kts 254°
2026-05-09 10:54 26.22426 100.29519 15602 ft 350 kts 256°
2026-05-09 10:55 26.22076 100.26866 14730 ft 345 kts 270°
2026-05-09 10:55 26.22353 100.24230 13875 ft 343 kts 284°
2026-05-09 10:55 26.23037 100.21713 13259 ft 334 kts 286°
2026-05-09 10:55 26.23701 100.19319 13071 ft 312 kts 285°
2026-05-09 10:56 26.24315 100.17090 12989 ft 290 kts 285°
2026-05-09 10:56 26.24882 100.15030 13001 ft 267 kts 285°
2026-05-09 10:56 26.25457 100.13134 12999 ft 254 kts 296°
2026-05-09 10:56 26.26618 100.11682 13029 ft 258 kts 327°
2026-05-09 10:57 26.28342 100.11202 13035 ft 266 kts
2026-05-09 10:57 26.30119 100.11658 13025 ft 259 kts 12°
2026-05-09 10:57 26.31833 100.12268 13030 ft 257 kts 14°
2026-05-09 10:57 26.33527 100.12857 13025 ft 254 kts 14°
2026-05-09 10:58 26.35213 100.13429 13015 ft 250 kts 11°
2026-05-09 10:58 26.36824 100.13977 12794 ft 236 kts 11°
2026-05-09 10:58 26.38370 100.14500 12498 ft 228 kts 12°
2026-05-09 10:58 26.39852 100.15003 12199 ft 217 kts 12°
2026-05-09 10:59 26.41253 100.15478 11969 ft 202 kts 13°
2026-05-09 10:59 26.42552 100.15919 11697 ft 189 kts 13°
2026-05-09 10:59 26.43798 100.16341 11455 ft 185 kts 10°
2026-05-09 10:59 26.45018 100.16755 11226 ft 182 kts 11°
2026-05-09 11:00 26.46220 100.17162 11002 ft 180 kts 10°
2026-05-09 11:00 26.47423 100.17570 10781 ft 180 kts 10°
2026-05-09 11:00 26.48622 100.17977 10552 ft 180 kts 11°
2026-05-09 11:00 26.49815 100.18383 10342 ft 179 kts 13°
2026-05-09 11:01 26.51006 100.18788 10129 ft 179 kts 13°
2026-05-09 11:01 26.52198 100.19193 9909 ft 179 kts 12°
2026-05-09 11:01 26.53387 100.19597 9716 ft 178 kts 12°
2026-05-09 11:01 26.54565 100.19998 9559 ft 177 kts 12°
2026-05-09 11:02 26.55748 100.20401 9310 ft 176 kts 13°
2026-05-09 11:02 26.56948 100.20809 8980 ft 182 kts 18°
2026-05-09 11:02 26.58141 100.21215 8765 ft 176 kts 18°
2026-05-09 11:02 26.59300 100.21609 8544 ft 175 kts 18°
2026-05-09 11:03 26.60474 100.22009 8391 ft 175 kts 17°
2026-05-09 11:03 26.61635 100.22405 8229 ft 175 kts 17°
2026-05-09 11:03 26.62780 100.22793 8076 ft 173 kts 15°
2026-05-09 11:03 26.63924 100.23184 7926 ft 171 kts 16°
2026-05-09 11:04 26.65060 100.23575 7632 ft 171 kts 16°
2026-05-09 11:04 26.66188 100.23965 7391 ft 169 kts 17°
2026-05-09 11:04 26.67271 100.24316 7288 ft 149 kts 15°
2026-05-09 11:04 26.68092 100.24608 7286 ft 85 kts 16°
2026-05-09 11:05 26.68450 100.24729 7288 ft 34 kts 18°
2026-05-09 11:05 26.68536 100.24835 7287 ft 20 kts 110°
2026-05-09 11:05 26.68453 100.24915 7286 ft 16 kts 190°
2026-05-09 11:05 26.68345 100.24877 7286 ft 17 kts 197°
2026-05-09 11:06 26.68234 100.24838 7287 ft 17 kts 198°
2026-05-09 11:06 26.68122 100.24801 7287 ft 17 kts 197°
2026-05-09 11:06 26.68008 100.24762 7287 ft 17 kts 197°
2026-05-09 11:06 26.67891 100.24722 7287 ft 18 kts 195°
2026-05-09 11:07 26.67771 100.24682 7286 ft 18 kts 197°
2026-05-09 11:07 26.67649 100.24641 7286 ft 18 kts 197°
2026-05-09 11:07 26.67525 100.24598 7286 ft 19 kts 197°
2026-05-09 11:07 26.67400 100.24554 7287 ft 19 kts 198°
2026-05-09 11:08 26.67273 100.24513 7286 ft 17 kts 196°
2026-05-09 11:08 26.67219 100.24560 7286 ft 8 kts 105°
2026-05-09 11:08 26.67209 100.24595 7287 ft 2 kts 107°
2026-05-09 11:08 26.67208 100.24599 7286 ft 0 kts 107°